SCP
0 0 0 0 0 0 0 0 0 0 0 0 0 0 0 0 0 0 0 0 0 0 -0 -0 -0 0 0 0 0 0 0 0 0 0 0 0 0 0 0 0 0 0 0 0 0 0 0 0 0 0 0 0 0 0
0 0 0 0 0 0 0 0 0 0 0 0 0 0 0 0 0 0 0 0 -0 -0 0 -0 -0 -0 -0 -0 0 -0 0 -0 0 0 0 0 0 0 0 0 0 0 0 0 0 0 0 0 0 0 0 0 0 0
0 0 0 0 0 0 0 0 0 0 0 0 0 0 0 0 0 0 0 -0 0 -0 -0 0 -0 0 -0 0 -0 -0 -0 -0 0 0 0 0 0 0 0 0 0 0 0 0 0 0 0 0 0 0 0 0 0 0
0 0 0 0 0 0 0 0 0 0 0 0 0 0 -0 0 0 -0 0 -0 -0 0 -0 -0 0 -0 0 0 -0 -0 0 0 0 0 0 0 0 0 0 0 0 0 0 -0 -0 -0 0 0 0 0 0 0 0 0
0 0 0 0 0 0 0 0 0 0 0 0 0 0 0 -0 -0 0 0 -0 -0 -0 -0 -0 -0 -0 0 0 0 0 0 0 0 0 0 0 0 0 0 0 0 0 0 0 0 -0 0 0 0 0 0 0 0 0
0 0 0 0 0 0 0 0 0 0 0 0 0 0 0 -0 0 -0 -0 -0 0 0 0 0 -0 0 0 0 0 0 0 0 0 0 0 0 0 0 0 0 0 0 0 0 0 0 0 0 0 0 0 0 0 0
0 0 0 0 0 0 0 0 0 0 0 0 0 0 -0 -0 0 -0 -0 0 0 0 -0 0 0 -0 0 0 0 0 0 0 0 0 0 0 0 0 0 0 0 0 0 0 0 0 0 0 0 0 0 0 0 0
0 0 0 0 0 0 0 0 0 -0 0 0 0 -0 -0 -0 -0 -0 0 -0 -0 0 -0 -0 0 0 0 0 0 0 0 0 0 0 0 0 0 0 0 0 0 0 0 0 0 0 0 0 0 0 0 0 0 0
0 0 0 0 0 0 0 0 -0 -0 0 -0 -0 -0 0 0 -0 0 -0 -0 0 -0 -0 0 0 0 0 0 0 0 0 0 0 0 0 0 0 0 0 0 0 0 0 -0 0 0 0 0 0 0 0 0 0 0
0 0 0 0 0 0 0 0 0 0 -0 -0 -0 0 0 -0 -0 -0 -0 0 0 0 -0 -0 0 0 0 0 0 0 0 0 0 0 0 0 0 0 0 0 0 -0 -0 -0 -0 0 0 0 0 0 0 0 0 0
0 0 0 0 0 0 0 0 0 0 -0 0 -0 -0 -0 -0 -0 0 0 0 0 0 0 0 0 0 0 0 0 0 0 0 0 0 0 0 0 0 0 -0 -0 -0 -0 0 0 0 0 0 0 0 0 0 0 0
0 0 0 0 0 0 -0 -0 -0 0 0 0 -0 -0 -0 -0 0 0 0 0 0 0 0 0 0 0 0 0 0 0 0 0 0 0 0 0 0 0 -0 -0 -0 -0 0 0 0 0 0 0 0 0 0 0 0 0
0 0 0 0 0 -0 -0 -0 -0 -0 -0 -0 -0 0 0 0 0 0 0 0 0 -0 -0 -0 0 0 0 0 0 0 0 0 0 0 0 0 0 -0 -0 -0 -0 0 0 0 0 0 0 0 0 -0 0 0 0 0
0 0 0 -0 -0 -0 -0 0 -0 -0 0 0 0 0 0 0 0 0 -0 -0 0 0 -0 -0 0 0 0 0 0 0 0 0 0 0 0 0 -0 -0 -0 -0 -0 0 0 0 0 0 0 -0 -0 0 0 -0 -0 -0
-0 -0 -0 0 0 0 -0 -0 -0 0 0 0 0 0 0 0 -0 -0 -0 -0 0 0 -0 0 0 0 0 0 0 0 0 0 0 0 0 0 -0 -0 -0 -0 0 0 0 0 0 0 0 -0 -0 -0 0 -0 -0 -0
0 0 0 0 0 -0 -0 -0 0 0 0 -0 -0 0 -0 0 0 0 0 0 -0 0 0 0 0 0 0 0 0 0 0 0 0 0 0 -0 -0 -0 0 0 0 0 0 0 0 0 0 -0 0 0 -0 -0 -0 0
0 0 0 -0 -0 -0 -0 0 0 0 0 -0 -0 0 0 0 0 0 0 0 0 0 0 0 0 0 0 0 0 0 -0 -0 0 0 0 -0 -0 0 0 0 0 0 0 0 0 0 0 0 0 -0 -0 -0 0 0
0 0 -0 -0 -0 0 0 0 0 0 0 0 0 0 0 0 0 0 0 0 0 0 0 0 0 0 0 0 0 0 0 -0 -0 -0 -0 -0 0 -0 0 0 0 0 -0 -0 0 0 0 0 0 -0 0 0 0 0
0 0 -0 -0 0 0 0 0 0 0 0 -0 0 0 0 0 0 0 0 0 0 0 0 0 -0 0 0 0 0 0 0 -0 -0 0 -0 -0 -0 -0 0 0 0 -0 -0 -0 -0 0 0 0 0 -0 -0 0 0 0
-0 -0 -0 -0 0 0 0 0 0 0 0 0 0 0 0 0 0 0 0 0 0 0 0 0 0 0 0 -0 -0 -0 -0 -0 -0 -0 -0 0 0 0 0 0 0 0 -0 -0 -0 -0 0 0 0 0 0 0 0 0
0 0 0 0 0 0 0 0 0 0 0 0 0 0 0 0 0 0 0 0 0 0 -0 -0 0 -0 -0 -0 -0 -0 -0 -0 -0 -0 -0 0 0 0 0 0 0 0 -0 -0 -0 -0 -0 0 0 0 0 -0 -0 -0
0 0 0 0 0 0 0 0 0 0 0 0 0 0 0 0 0 0 0 0 0 0 -0 -0 0 0 -0 -0 -0 0 -0 -0 -0 -0 -0 -0 -0 0 0 0 -0 0 0 -0 -0 -0 -0 -0 -0 0 -0 -0 -0 -0
0 0 0 0 0 0 0 0 0 0 0 0 0 0 0 0 0 0 0 0 0 0 0 0 0 0 -0 0 0 0 0 0 -0 -0 -0 -0 -0 -0 -0 -0 -0 -0 0 0 0 -0 -0 -0 0 0 0 -0 -0 -0
0 0 0 0 0 0 0 0 0 0 0 0 0 0 0 0 0 0 0 0 0 0 0 0 -0 0 0 -0 -0 0 0 0 0 0 0 -0 -0 0 -0 -0 -0 -0 -0 -0 -0 -0 -0 0 0 0 0 0 -0 0
0 0 0 0 0 0 0 0 0 0 0 0 0 0 0 0 0 0 0 0 0 0 0 0 0 0 0 0 0 -0 0 0 0 0 0 -0 0 0 0 0 -0 -0 -0 -0 -0 -0 -0 -0 0 0 0 0 0 0
0 0 0 0 0 0 0 0 0 0 0 0 0 0 0 0 0 0 0 0 0 0 0 0 0 0 0 0 0 0 0 0 0 0 0 -0 -0 0 0 0 0 0 -0 -0 -0 -0 -0 -0 -0 -0 -0 0 0 -0
0 0 0 0 0 0 0 0 0 0 0 0 0 0 0 0 0 0 -0 0 0 0 0 0 0 0 0 0 0 0 0 -0 -0 0 0 0 0 0 -0 -0 0 0 -0 -0 -0 -0 -0 -0 -0 -0 -0 -0 -0 -0
-0 0 0 0 0 0 0 0 0 0 0 0 0 0 0 0 0 0 0 -0 0 0 0 0 0 0 0 0 0 0 0 0 0 0 0 0 0 0 0 0 0 -0 -0 -0 -0 -0 -0 -0 -0 -0 -0 -0 -0 -0
0 0 0 0 0 0 0 0 0 0 0 0 0 0 0 0 -0 0 0 0 0 0 0 0 0 0 0 0 0 0 0 0 0 0 0 0 0 0 0 0 -0 -0 -0 -0 -0 -0 -0 -0 -0 -0 -0 -0 -0 -0
0 0 0 0 0 0 0 0 0 0 -0 0 0 0 0 0 0 0 0 0 0 0 0 0 0 0 0 0 0 0 0 0 0 0 0 0 0 0 0 0 0 0 0 -0 -0 -0 -0 -0 -0 0 -0 -0 -0 0
0 0 0 0 0 0 0 0 -0 0 0 0 0 0 0 0 0 -0 0 0 0 0 0 0 0 0 0 0 0 0 0 0 0 0 0 0 0 0 0 0 0 0 0 0 0 -0 -0 -0 -0 -0 0 0 0 0
-0 0 0 0 0 0 0 0 0 0 0 0 0 0 0 0 0 0 0 0 0 0 0 0 0 0 0 0 0 0 0 0 0 0 0 0 0 0 0 0 0 0 0 0 0 0 0 -0 0 0 0 0 0 0
-0 -0 -0 -0 0 0 0 0 0 0 0 0 0 0 0 0 0 0 0 0 0 0 0 0 0 0 0 0 0 0 0 0 0 0 0 0 0 0 0 0 0 0 0 0 0 0 0 0 0 0 0 0 0 0
Wind_Speed_500mb
38 37 39 41 43 43 44 45 47 47 48 48 47 44 44 41 33 35 47 38 30 18 45 66 61 31 32 28 7 34 21 9 7 6 6 6 2 3 5 7 10 5 6 1 5 9 1 12 12 10 15 34 52 55
36 38 40 42 43 44 45 45 46 48 49 48 46 43 42 40 34 36 47 41 44 35 48 61 70 72 62 48 41 11 5 3 11 5 7 5 6 5 7 3 3 4 7 7 6 7 8 28 42 57 55 52 46 49
34 38 40 43 44 44 45 45 47 48 49 47 44 42 40 43 37 36 49 48 40 27 48 33 24 33 14 35 22 11 11 2 15 10 4 4 8 2 1 4 8 8 4 9 10 9 18 43 46 46 44 47 50 47
32 37 40 43 45 46 46 47 48 49 50 44 42 39 38 42 44 39 45 43 43 21 11 21 15 29 30 34 28 27 41 30 31 23 3 4 4 14 5 1 7 5 9 11 13 18 24 30 43 54 55 49 45 40
35 37 41 42 44 44 45 46 46 47 45 41 39 40 41 43 40 45 50 16 9 26 8 28 70 6 22 10 18 21 31 37 24 5 6 7 1 7 5 7 9 7 8 7 7 34 28 24 50 45 44 40 32 29
34 38 41 42 43 44 44 43 43 46 40 41 45 44 45 44 34 33 12 6 23 6 9 6 17 21 21 5 15 15 14 19 14 5 5 5 8 6 6 5 7 32 38 42 17 39 48 59 55 38 39 35 30 25
35 38 41 41 43 43 42 44 45 38 39 44 50 47 43 32 23 22 12 24 29 23 10 7 9 9 18 8 5 2 8 8 7 1 4 5 11 9 5 4 4 37 41 46 52 68 41 41 42 40 36 28 17 12
36 38 41 42 42 41 41 41 38 38 43 45 42 39 29 17 13 16 12 14 13 11 8 5 6 15 7 5 3 2 3 7 5 2 3 4 6 7 5 5 28 40 43 37 34 42 57 50 39 31 19 11 14 19
37 37 39 40 40 38 38 38 35 39 46 38 32 24 6 7 6 9 5 6 5 5 4 5 5 4 12 3 5 4 2 4 5 3 3 7 4 2 7 17 21 26 31 60 61 56 44 37 29 21 19 24 25 21
39 38 37 36 35 33 33 32 32 37 40 31 18 7 4 18 14 16 6 2 5 5 7 6 5 6 7 4 10 6 2 3 2 8 6 6 1 6 38 37 34 43 66 63 59 41 35 31 24 22 24 23 19 17
33 37 33 31 29 28 30 27 24 33 28 26 15 8 24 13 7 5 5 5 6 5 11 13 23 4 7 5 7 11 5 3 4 7 7 0 1 2 31 31 26 38 40 41 43 37 30 26 21 22 22 16 13 14
32 34 30 29 26 25 25 18 22 26 26 26 24 24 13 5 4 4 5 6 7 6 9 8 14 22 6 11 2 4 3 3 4 6 6 4 3 30 54 53 52 45 40 40 33 35 31 27 24 25 18 9 8 6
29 30 29 28 23 23 16 15 20 23 24 13 4 5 3 3 3 6 5 2 6 18 12 17 5 3 4 3 2 3 4 3 4 5 4 2 14 47 61 59 50 40 35 35 34 29 26 22 22 28 18 11 9 8
30 31 28 22 16 12 16 21 19 16 10 5 4 6 5 5 5 2 5 6 11 16 33 37 7 2 3 4 4 1 5 5 3 3 7 10 32 49 60 57 50 38 29 28 28 26 23 19 26 31 26 14 14 15
29 29 18 7 10 20 25 23 13 12 7 6 4 6 7 10 14 20 18 22 22 21 20 12 6 3 4 3 2 3 2 3 5 7 7 32 45 59 62 53 44 34 29 27 26 25 24 25 24 29 29 19 16 19
28 20 2 11 23 30 24 20 11 11 7 7 9 7 16 11 10 17 21 25 22 16 17 10 4 2 7 6 4 8 3 7 6 5 35 49 49 56 57 47 39 35 29 27 23 25 28 34 24 26 30 29 19 17
23 13 14 29 38 28 18 13 8 9 8 7 12 22 33 24 21 24 19 20 6 16 4 3 5 5 4 4 4 1 7 6 17 34 53 49 43 59 53 47 42 36 30 25 23 24 23 30 26 18 26 25 29 24
26 21 22 28 34 20 7 8 8 9 11 18 9 15 23 28 27 32 26 16 10 5 5 3 6 5 4 3 4 1 8 28 40 42 46 41 58 55 48 46 37 28 26 22 22 24 21 24 17 18 17 20 24 23
30 26 17 13 11 11 3 7 9 8 12 16 26 34 28 19 21 24 30 16 13 15 12 5 7 2 5 5 5 16 34 44 48 45 45 57 50 49 45 36 29 26 24 26 26 23 20 19 19 21 20 15 14 19
26 16 10 7 8 4 6 8 8 9 7 9 28 22 30 28 28 18 16 13 9 6 6 5 4 10 9 12 8 20 40 47 51 49 54 52 46 42 39 34 28 27 28 24 20 21 21 19 11 11 14 15 20 17
6 5 10 9 9 11 9 8 9 8 12 10 24 24 25 21 15 11 7 7 3 2 4 14 19 11 12 9 21 33 45 47 52 54 58 52 48 40 39 32 26 27 30 33 28 26 22 15 13 12 8 13 24 27
5 8 4 5 7 7 11 10 10 13 10 16 22 11 12 9 9 10 7 8 5 5 17 21 10 10 20 28 37 27 32 37 39 44 42 49 50 47 41 37 32 31 30 33 31 30 24 23 21 20 21 24 22 17
5 4 6 6 7 7 10 8 6 7 4 6 7 6 6 6 7 13 2 5 1 6 6 10 6 14 20 24 23 23 23 28 36 35 47 46 46 40 35 36 31 30 31 32 30 31 25 21 21 18 20 23 21 19
3 3 5 7 11 8 7 7 9 7 6 5 4 7 6 5 6 3 2 8 21 22 12 14 15 15 25 23 26 27 24 24 22 30 39 39 46 40 33 33 33 32 29 33 35 35 29 25 25 26 25 27 25 21
5 8 7 10 9 6 5 5 7 4 7 8 4 6 6 10 1 1 5 6 28 26 25 17 20 20 25 25 22 22 19 18 24 38 30 35 29 39 38 33 30 31 33 44 42 37 32 28 28 29 28 27 26 24
6 8 10 7 7 7 5 6 5 9 6 5 7 5 6 2 4 6 3 7 18 23 20 20 19 18 15 20 22 23 20 17 23 21 16 26 32 31 37 43 41 36 30 26 36 35 32 32 30 31 31 31 30 27
6 9 13 14 11 11 8 12 15 8 7 6 5 9 6 5 4 1 9 8 6 6 17 18 15 19 17 15 19 19 14 14 15 20 16 23 29 21 40 43 44 33 33 25 25 24 29 35 30 28 31 38 38 29
12 11 6 15 13 17 7 6 5 7 7 10 7 6 4 4 3 7 5 3 5 6 4 8 3 5 8 8 7 2 13 19 27 18 18 26 27 22 10 32 38 35 31 23 23 26 28 35 33 32 23 30 32 29
11 13 10 14 11 9 6 7 6 8 9 12 3 3 5 6 10 8 7 4 11 8 14 7 5 3 1 5 4 3 6 11 5 5 7 19 32 30 13 17 32 42 34 33 29 32 35 35 38 31 21 32 31 24
12 13 6 7 4 5 3 10 7 3 6 2 10 27 27 23 17 12 11 8 11 14 13 10 7 6 14 11 8 8 9 14 10 7 7 13 20 20 14 19 32 39 38 39 41 42 40 40 37 35 34 36 33 29
9 10 9 15 7 15 15 13 8 9 13 4 22 22 18 18 18 10 7 3 2 6 6 5 5 9 6 5 6 5 5 6 2 6 13 16 11 19 25 27 32 36 36 31 40 52 50 50 47 46 44 40 31 26
13 15 6 2 3 3 17 8 4 9 11 14 12 20 18 11 7 6 3 2 7 10 11 13 13 12 13 13 11 9 7 10 11 5 4 13 23 28 21 28 37 35 33 35 40 46 50 49 48 45 40 32 26 26
13 19 15 4 4 5 5 6 5 3 5 7 8 16 9 9 7 7 2 3 4 6 9 15 15 15 14 14 19 24 29 26 23 21 16 19 14 21 25 32 34 37 43 45 37 49 50 43 39 34 30 29 27 29
Wind_Direction_500mb
290 298 300 305 310 314 319 319 319 322 320 319 320 326 328 329 318 314 302 312 303 267 287 282 274 268 291 286 275 292 314 6 296 330 22 48 51 23 307 168 135 121 104 126 67 77 107 359 21 95 145 118 109 104
288 294 299 305 310 315 316 316 318 320 319 319 319 326 328 327 319 312 305 304 315 296 278 288 283 282 278 279 262 269 278 106 275 322 8 15 21 46 322 102 16 65 164 142 97 183 290 72 104 118 116 110 103 97
285 293 301 306 310 312 313 314 316 317 318 319 318 322 325 322 313 302 300 303 317 299 300 277 292 310 285 299 260 251 236 191 262 342 326 297 59 301 336 312 71 38 141 119 86 70 84 101 113 111 108 105 108 108
292 296 302 306 309 312 313 314 315 316 317 318 319 322 325 325 324 308 298 304 300 270 273 287 281 285 304 278 242 247 264 277 267 287 291 294 233 180 260 114 82 259 29 88 83 83 82 95 103 108 105 104 101 99
291 297 301 306 308 310 313 316 317 319 320 319 320 320 321 319 317 308 309 350 271 233 283 296 304 254 332 299 228 235 229 249 284 211 209 219 213 24 7 53 7 347 162 125 176 165 116 104 120 119 104 103 110 121
290 296 301 305 309 311 313 315 317 319 319 320 317 317 316 311 307 312 309 209 9 345 298 287 297 307 334 297 192 178 206 270 261 308 308 37 33 83 75 91 296 91 96 118 135 143 109 113 112 123 127 115 106 102
292 296 301 306 307 310 313 315 319 320 322 323 319 317 316 303 278 252 263 296 302 314 268 282 286 297 333 348 67 84 266 272 236 331 31 53 4 42 73 99 189 125 112 123 132 121 99 119 111 113 107 100 98 81
293 299 304 307 308 310 313 316 318 318 323 325 322 325 320 308 271 274 310 311 264 235 261 281 281 338 356 268 315 87 7 19 39 53 71 96 13 54 73 185 131 118 123 116 122 137 129 122 112 97 89 57 6 349
297 300 301 305 307 310 312 321 320 321 327 326 322 329 357 5 325 281 346 319 237 252 274 279 283 302 327 325 22 67 35 12 338 40 282 105 4 68 171 124 117 121 119 115 118 120 118 103 87 62 26 4 355 344
297 300 305 305 306 309 318 321 324 331 342 344 346 0 24 330 302 301 269 230 247 231 232 248 234 261 304 357 7 321 215 216 117 250 123 76 85 319 132 105 83 107 122 133 115 107 103 88 69 44 23 7 351 339
303 309 307 309 310 312 321 325 330 338 347 351 342 325 325 339 320 271 266 218 190 242 222 237 205 246 230 169 189 217 209 197 128 260 114 113 55 173 125 136 148 119 124 112 111 105 91 79 67 36 15 7 359 346
309 311 311 312 313 317 319 316 330 333 338 325 298 304 325 330 271 280 243 229 209 242 211 205 231 213 250 228 174 228 217 62 184 153 81 92 159 126 126 127 125 122 115 109 103 97 84 69 49 27 27 42 15 340
305 314 314 313 310 313 308 317 322 321 329 316 280 269 284 261 280 233 253 339 330 342 355 336 289 280 317 307 321 25 22 246 108 66 133 170 171 126 135 135 127 123 114 113 106 92 77 72 54 38 46 59 44 40
311 316 315 307 312 329 327 321 317 321 316 276 286 292 232 238 240 216 252 208 258 263 308 318 291 174 272 3 199 98 244 109 92 100 178 177 149 139 141 140 135 132 123 120 118 105 88 77 66 47 46 68 60 63
318 322 313 303 316 318 321 313 297 272 259 259 236 251 244 287 299 311 307 298 278 302 290 307 309 231 275 254 227 34 244 248 166 194 178 163 143 143 144 144 141 140 138 130 137 119 96 78 63 53 49 64 75 71
324 338 171 282 305 307 307 297 275 225 240 234 229 264 263 314 311 318 309 295 296 302 295 246 266 248 250 191 162 219 188 213 225 188 153 155 147 155 151 151 149 148 148 145 146 134 105 80 57 65 58 57 79 93
320 313 285 305 303 306 292 265 213 223 231 226 243 244 262 274 261 277 284 292 300 303 279 338 313 249 281 152 191 130 186 196 157 144 154 159 161 157 155 153 152 153 152 152 150 150 125 91 54 74 68 62 68 83
309 312 283 302 308 323 197 212 237 232 237 243 233 249 255 261 276 293 302 324 266 274 280 209 254 329 15 358 307 257 109 141 152 151 152 155 159 160 162 158 157 155 151 148 143 128 122 106 90 79 91 72 63 68
314 310 304 293 314 314 265 230 228 255 244 274 269 283 282 267 284 283 286 290 278 294 295 8 31 312 271 238 236 158 147 147 147 151 157 161 163 163 158 155 151 148 147 151 152 133 111 112 103 93 83 111 103 78
317 310 291 220 203 256 276 258 231 261 266 291 303 292 307 289 285 254 268 274 310 312 50 52 262 280 323 299 199 162 155 151 147 147 154 160 167 165 163 160 153 149 147 150 152 149 148 148 145 136 105 101 117 115
344 1 317 220 240 241 255 274 246 257 296 277 291 310 295 285 259 255 275 226 257 164 124 229 238 279 303 182 162 152 159 166 168 165 166 166 171 174 168 164 160 163 165 166 167 167 171 167 140 161 139 134 115 96
247 310 295 240 254 242 258 239 258 301 290 273 292 262 267 279 267 225 190 184 233 210 180 203 194 137 145 141 145 156 165 175 172 173 174 174 172 175 175 178 174 174 177 173 173 175 170 162 150 142 133 128 126 123
250 258 264 240 262 242 261 223 252 243 248 266 281 274 248 251 217 167 149 214 180 29 233 199 194 147 139 153 161 157 160 156 158 177 182 184 186 186 190 194 193 186 184 182 186 185 178 167 170 157 145 135 146 143
279 279 257 251 225 254 255 222 228 249 250 261 269 270 272 259 167 127 83 54 10 53 93 193 191 168 142 152 163 163 164 168 167 175 181 184 184 191 198 200 206 210 207 193 189 190 175 163 159 159 153 152 162 162
261 242 214 258 244 250 261 237 206 222 245 220 244 291 344 338 114 63 62 38 26 46 49 59 167 179 152 158 164 166 160 180 180 176 186 193 185 195 205 208 207 216 215 201 191 191 183 174 173 179 178 172 168 168
243 230 196 236 224 194 233 321 293 214 240 242 222 105 342 261 34 57 50 56 62 58 2 55 61 95 112 164 166 169 173 172 181 176 201 194 190 201 203 196 198 200 201 203 188 184 181 175 181 191 196 199 196 186
260 270 235 236 240 256 287 273 251 230 243 237 164 139 231 163 98 200 158 104 113 69 44 49 63 80 84 116 160 168 163 172 175 182 180 177 180 202 208 199 199 202 189 192 197 184 176 181 191 204 204 209 207 200
244 275 249 325 302 268 247 263 301 323 327 342 64 50 86 39 116 151 156 328 247 111 85 49 120 88 103 104 93 118 215 211 213 212 206 192 204 211 174 212 214 204 190 198 193 197 190 190 192 188 191 188 185 203
245 249 275 283 288 259 247 223 203 139 255 278 119 104 128 100 128 118 94 111 129 60 119 166 151 184 227 241 237 144 165 186 197 201 215 221 219 214 217 196 196 194 200 195 201 201 199 199 197 198 191 181 192 198
242 232 241 282 254 243 302 334 1 274 277 326 102 112 109 118 102 109 97 91 104 85 105 116 115 149 105 106 110 125 147 186 201 228 267 237 210 203 194 199 196 196 195 194 209 203 201 198 197 191 186 188 193 194
257 354 242 224 257 283 301 329 318 311 245 216 159 148 141 135 137 137 133 131 164 163 171 180 174 132 140 122 110 115 164 203 257 266 235 206 176 186 195 195 190 199 200 209 205 192 191 193 194 194 194 194 195 199
218 202 239 284 324 285 314 302 244 209 215 184 148 152 149 148 109 151 84 284 253 226 236 259 251 252 257 258 267 252 232 232 238 233 285 221 214 210 199 208 210 201 196 192 199 205 203 198 196 197 196 196 197 196
230 229 239 257 285 260 312 267 229 264 156 146 136 154 145 140 129 177 211 307 298 272 256 258 261 270 274 270 259 252 247 243 242 245 248 240 241 205 200 206 209 205 202 199 198 198 190 193 195 197 196 195 193 194
Wind_Speed_850mb
38 37 39 41 43 43 44 45 47 47 48 48 47 44 44 41 33 35 47 38 30 18 45 66 61 31 32 28 7 34 21 9 7 6 6 6 2 3 5 7 10 5 6 1 5 9 1 12 12 10 15 34 52 55
36 38 40 42 43 44 45 45 46 48 49 48 46 43 42 40 34 36 47 41 44 35 48 61 70 72 62 48 41 11 5 3 11 5 7 5 6 5 7 3 3 4 7 7 6 7 8 28 42 57 55 52 46 49
34 38 40 43 44 44 45 45 47 48 49 47 44 42 40 43 37 36 49 48 40 27 48 33 24 33 14 35 22 11 11 2 15 10 4 4 8 2 1 4 8 8 4 9 10 9 18 43 46 46 44 47 50 47
32 37 40 43 45 46 46 47 48 49 50 44 42 39 38 42 44 39 45 43 43 21 11 21 15 29 30 34 28 27 41 30 31 23 3 4 4 14 5 1 7 5 9 11 13 18 24 30 43 54 55 49 45 40
35 37 41 42 44 44 45 46 46 47 45 41 39 40 41 43 40 45 50 16 9 26 8 28 70 6 22 10 18 21 31 37 24 5 6 7 1 7 5 7 9 7 8 7 7 34 28 24 50 45 44 40 32 29
34 38 41 42 43 44 44 43 43 46 40 41 45 44 45 44 34 33 12 6 23 6 9 6 17 21 21 5 15 15 14 19 14 5 5 5 8 6 6 5 7 32 38 42 17 39 48 59 55 38 39 35 30 25
35 38 41 41 43 43 42 44 45 38 39 44 50 47 43 32 23 22 12 24 29 23 10 7 9 9 18 8 5 2 8 8 7 1 4 5 11 9 5 4 4 37 41 46 52 68 41 41 42 40 36 28 17 12
36 38 41 42 42 41 41 41 38 38 43 45 42 39 29 17 13 16 12 14 13 11 8 5 6 15 7 5 3 2 3 7 5 2 3 4 6 7 5 5 28 40 43 37 34 42 57 50 39 31 19 11 14 19
37 37 39 40 40 38 38 38 35 39 46 38 32 24 6 7 6 9 5 6 5 5 4 5 5 4 12 3 5 4 2 4 5 3 3 7 4 2 7 17 21 26 31 60 61 56 44 37 29 21 19 24 25 21
39 38 37 36 35 33 33 32 32 37 40 31 18 7 4 18 14 16 6 2 5 5 7 6 5 6 7 4 10 6 2 3 2 8 6 6 1 6 38 37 34 43 66 63 59 41 35 31 24 22 24 23 19 17
33 37 33 31 29 28 30 27 24 33 28 26 15 8 24 13 7 5 5 5 6 5 11 13 23 4 7 5 7 11 5 3 4 7 7 0 1 2 31 31 26 38 40 41 43 37 30 26 21 22 22 16 13 14
32 34 30 29 26 25 25 18 22 26 26 26 24 24 13 5 4 4 5 6 7 6 9 8 14 22 6 11 2 4 3 3 4 6 6 4 3 30 54 53 52 45 40 40 33 35 31 27 24 25 18 9 8 6
29 30 29 28 23 23 16 15 20 23 24 13 4 5 3 3 3 6 5 2 6 18 12 17 5 3 4 3 2 3 4 3 4 5 4 2 14 47 61 59 50 40 35 35 34 29 26 22 22 28 18 11 9 8
30 31 28 22 16 12 16 21 19 16 10 5 4 6 5 5 5 2 5 6 11 16 33 37 7 2 3 4 4 1 5 5 3 3 7 10 32 49 60 57 50 38 29 28 28 26 23 19 26 31 26 14 14 15
29 29 18 7 10 20 25 23 13 12 7 6 4 6 7 10 14 20 18 22 22 21 20 12 6 3 4 3 2 3 2 3 5 7 7 32 45 59 62 53 44 34 29 27 26 25 24 25 24 29 29 19 16 19
28 20 2 11 23 30 24 20 11 11 7 7 9 7 16 11 10 17 21 25 22 16 17 10 4 2 7 6 4 8 3 7 6 5 35 49 49 56 57 47 39 35 29 27 23 25 28 34 24 26 30 29 19 17
23 13 14 29 38 28 18 13 8 9 8 7 12 22 33 24 21 24 19 20 6 16 4 3 5 5 4 4 4 1 7 6 17 34 53 49 43 59 53 47 42 36 30 25 23 24 23 30 26 18 26 25 29 24
26 21 22 28 34 20 7 8 8 9 11 18 9 15 23 28 27 32 26 16 10 5 5 3 6 5 4 3 4 1 8 28 40 42 46 41 58 55 48 46 37 28 26 22 22 24 21 24 17 18 17 20 24 23
30 26 17 13 11 11 3 7 9 8 12 16 26 34 28 19 21 24 30 16 13 15 12 5 7 2 5 5 5 16 34 44 48 45 45 57 50 49 45 36 29 26 24 26 26 23 20 19 19 21 20 15 14 19
26 16 10 7 8 4 6 8 8 9 7 9 28 22 30 28 28 18 16 13 9 6 6 5 4 10 9 12 8 20 40 47 51 49 54 52 46 42 39 34 28 27 28 24 20 21 21 19 11 11 14 15 20 17
6 5 10 9 9 11 9 8 9 8 12 10 24 24 25 21 15 11 7 7 3 2 4 14 19 11 12 9 21 33 45 47 52 54 58 52 48 40 39 32 26 27 30 33 28 26 22 15 13 12 8 13 24 27
5 8 4 5 7 7 11 10 10 13 10 16 22 11 12 9 9 10 7 8 5 5 17 21 10 10 20 28 37 27 32 37 39 44 42 49 50 47 41 37 32 31 30 33 31 30 24 23 21 20 21 24 22 17
5 4 6 6 7 7 10 8 6 7 4 6 7 6 6 6 7 13 2 5 1 6 6 10 6 14 20 24 23 23 23 28 36 35 47 46 46 40 35 36 31 30 31 32 30 31 25 21 21 18 20 23 21 19
3 3 5 7 11 8 7 7 9 7 6 5 4 7 6 5 6 3 2 8 21 22 12 14 15 15 25 23 26 27 24 24 22 30 39 39 46 40 33 33 33 32 29 33 35 35 29 25 25 26 25 27 25 21
5 8 7 10 9 6 5 5 7 4 7 8 4 6 6 10 1 1 5 6 28 26 25 17 20 20 25 25 22 22 19 18 24 38 30 35 29 39 38 33 30 31 33 44 42 37 32 28 28 29 28 27 26 24
6 8 10 7 7 7 5 6 5 9 6 5 7 5 6 2 4 6 3 7 18 23 20 20 19 18 15 20 22 23 20 17 23 21 16 26 32 31 37 43 41 36 30 26 36 35 32 32 30 31 31 31 30 27
6 9 13 14 11 11 8 12 15 8 7 6 5 9 6 5 4 1 9 8 6 6 17 18 15 19 17 15 19 19 14 14 15 20 16 23 29 21 40 43 44 33 33 25 25 24 29 35 30 28 31 38 38 29
12 11 6 15 13 17 7 6 5 7 7 10 7 6 4 4 3 7 5 3 5 6 4 8 3 5 8 8 7 2 13 19 27 18 18 26 27 22 10 32 38 35 31 23 23 26 28 35 33 32 23 30 32 29
11 13 10 14 11 9 6 7 6 8 9 12 3 3 5 6 10 8 7 4 11 8 14 7 5 3 1 5 4 3 6 11 5 5 7 19 32 30 13 17 32 42 34 33 29 32 35 35 38 31 21 32 31 24
12 13 6 7 4 5 3 10 7 3 6 2 10 27 27 23 17 12 11 8 11 14 13 10 7 6 14 11 8 8 9 14 10 7 7 13 20 20 14 19 32 39 38 39 41 42 40 40 37 35 34 36 33 29
9 10 9 15 7 15 15 13 8 9 13 4 22 22 18 18 18 10 7 3 2 6 6 5 5 9 6 5 6 5 5 6 2 6 13 16 11 19 25 27 32 36 36 31 40 52 50 50 47 46 44 40 31 26
13 15 6 2 3 3 17 8 4 9 11 14 12 20 18 11 7 6 3 2 7 10 11 13 13 12 13 13 11 9 7 10 11 5 4 13 23 28 21 28 37 35 33 35 40 46 50 49 48 45 40 32 26 26
13 19 15 4 4 5 5 6 5 3 5 7 8 16 9 9 7 7 2 3 4 6 9 15 15 15 14 14 19 24 29 26 23 21 16 19 14 21 25 32 34 37 43 45 37 49 50 43 39 34 30 29 27 29
Wind_Direction_850mb
290 298 300 305 310 314 319 319 319 322 320 319 320 326 328 329 318 314 302 312 303 267 287 282 274 268 291 286 275 292 314 6 296 330 22 48 51 23 307 168 135 121 104 126 67 77 107 359 21 95 145 118 109 104
288 294 299 305 310 315 316 316 318 320 319 319 319 326 328 327 319 312 305 304 315 296 278 288 283 282 278 279 262 269 278 106 275 322 8 15 21 46 322 102 16 65 164 142 97 183 290 72 104 118 116 110 103 97
285 293 301 306 310 312 313 314 316 317 318 319 318 322 325 322 313 302 300 303 317 299 300 277 292 310 285 299 260 251 236 191 262 342 326 297 59 301 336 312 71 38 141 119 86 70 84 101 113 111 108 105 108 108
292 296 302 306 309 312 313 314 315 316 317 318 319 322 325 325 324 308 298 304 300 270 273 287 281 285 304 278 242 247 264 277 267 287 291 294 233 180 260 114 82 259 29 88 83 83 82 95 103 108 105 104 101 99
291 297 301 306 308 310 313 316 317 319 320 319 320 320 321 319 317 308 309 350 271 233 283 296 304 254 332 299 228 235 229 249 284 211 209 219 213 24 7 53 7 347 162 125 176 165 116 104 120 119 104 103 110 121
290 296 301 305 309 311 313 315 317 319 319 320 317 317 316 311 307 312 309 209 9 345 298 287 297 307 334 297 192 178 206 270 261 308 308 37 33 83 75 91 296 91 96 118 135 143 109 113 112 123 127 115 106 102
292 296 301 306 307 310 313 315 319 320 322 323 319 317 316 303 278 252 263 296 302 314 268 282 286 297 333 348 67 84 266 272 236 331 31 53 4 42 73 99 189 125 112 123 132 121 99 119 111 113 107 100 98 81
293 299 304 307 308 310 313 316 318 318 323 325 322 325 320 308 271 274 310 311 264 235 261 281 281 338 356 268 315 87 7 19 39 53 71 96 13 54 73 185 131 118 123 116 122 137 129 122 112 97 89 57 6 349
297 300 301 305 307 310 312 321 320 321 327 326 322 329 357 5 325 281 346 319 237 252 274 279 283 302 327 325 22 67 35 12 338 40 282 105 4 68 171 124 117 121 119 115 118 120 118 103 87 62 26 4 355 344
297 300 305 305 306 309 318 321 324 331 342 344 346 0 24 330 302 301 269 230 247 231 232 248 234 261 304 357 7 321 215 216 117 250 123 76 85 319 132 105 83 107 122 133 115 107 103 88 69 44 23 7 351 339
303 309 307 309 310 312 321 325 330 338 347 351 342 325 325 339 320 271 266 218 190 242 222 237 205 246 230 169 189 217 209 197 128 260 114 113 55 173 125 136 148 119 124 112 111 105 91 79 67 36 15 7 359 346
309 311 311 312 313 317 319 316 330 333 338 325 298 304 325 330 271 280 243 229 209 242 211 205 231 213 250 228 174 228 217 62 184 153 81 92 159 126 126 127 125 122 115 109 103 97 84 69 49 27 27 42 15 340
305 314 314 313 310 313 308 317 322 321 329 316 280 269 284 261 280 233 253 339 330 342 355 336 289 280 317 307 321 25 22 246 108 66 133 170 171 126 135 135 127 123 114 113 106 92 77 72 54 38 46 59 44 40
311 316 315 307 312 329 327 321 317 321 316 276 286 292 232 238 240 216 252 208 258 263 308 318 291 174 272 3 199 98 244 109 92 100 178 177 149 139 141 140 135 132 123 120 118 105 88 77 66 47 46 68 60 63
318 322 313 303 316 318 321 313 297 272 259 259 236 251 244 287 299 311 307 298 278 302 290 307 309 231 275 254 227 34 244 248 166 194 178 163 143 143 144 144 141 140 138 130 137 119 96 78 63 53 49 64 75 71
324 338 171 282 305 307 307 297 275 225 240 234 229 264 263 314 311 318 309 295 296 302 295 246 266 248 250 191 162 219 188 213 225 188 153 155 147 155 151 151 149 148 148 145 146 134 105 80 57 65 58 57 79 93
320 313 285 305 303 306 292 265 213 223 231 226 243 244 262 274 261 277 284 292 300 303 279 338 313 249 281 152 191 130 186 196 157 144 154 159 161 157 155 153 152 153 152 152 150 150 125 91 54 74 68 62 68 83
309 312 283 302 308 323 197 212 237 232 237 243 233 249 255 261 276 293 302 324 266 274 280 209 254 329 15 358 307 257 109 141 152 151 152 155 159 160 162 158 157 155 151 148 143 128 122 106 90 79 91 72 63 68
314 310 304 293 314 314 265 230 228 255 244 274 269 283 282 267 284 283 286 290 278 294 295 8 31 312 271 238 236 158 147 147 147 151 157 161 163 163 158 155 151 148 147 151 152 133 111 112 103 93 83 111 103 78
317 310 291 220 203 256 276 258 231 261 266 291 303 292 307 289 285 254 268 274 310 312 50 52 262 280 323 299 199 162 155 151 147 147 154 160 167 165 163 160 153 149 147 150 152 149 148 148 145 136 105 101 117 115
344 1 317 220 240 241 255 274 246 257 296 277 291 310 295 285 259 255 275 226 257 164 124 229 238 279 303 182 162 152 159 166 168 165 166 166 171 174 168 164 160 163 165 166 167 167 171 167 140 161 139 134 115 96
247 310 295 240 254 242 258 239 258 301 290 273 292 262 267 279 267 225 190 184 233 210 180 203 194 137 145 141 145 156 165 175 172 173 174 174 172 175 175 178 174 174 177 173 173 175 170 162 150 142 133 128 126 123
250 258 264 240 262 242 261 223 252 243 248 266 281 274 248 251 217 167 149 214 180 29 233 199 194 147 139 153 161 157 160 156 158 177 182 184 186 186 190 194 193 186 184 182 186 185 178 167 170 157 145 135 146 143
279 279 257 251 225 254 255 222 228 249 250 261 269 270 272 259 167 127 83 54 10 53 93 193 191 168 142 152 163 163 164 168 167 175 181 184 184 191 198 200 206 210 207 193 189 190 175 163 159 159 153 152 162 162
261 242 214 258 244 250 261 237 206 222 245 220 244 291 344 338 114 63 62 38 26 46 49 59 167 179 152 158 164 166 160 180 180 176 186 193 185 195 205 208 207 216 215 201 191 191 183 174 173 179 178 172 168 168
243 230 196 236 224 194 233 321 293 214 240 242 222 105 342 261 34 57 50 56 62 58 2 55 61 95 112 164 166 169 173 172 181 176 201 194 190 201 203 196 198 200 201 203 188 184 181 175 181 191 196 199 196 186
260 270 235 236 240 256 287 273 251 230 243 237 164 139 231 163 98 200 158 104 113 69 44 49 63 80 84 116 160 168 163 172 175 182 180 177 180 202 208 199 199 202 189 192 197 184 176 181 191 204 204 209 207 200
244 275 249 325 302 268 247 263 301 323 327 342 64 50 86 39 116 151 156 328 247 111 85 49 120 88 103 104 93 118 215 211 213 212 206 192 204 211 174 212 214 204 190 198 193 197 190 190 192 188 191 188 185 203
245 249 275 283 288 259 247 223 203 139 255 278 119 104 128 100 128 118 94 111 129 60 119 166 151 184 227 241 237 144 165 186 197 201 215 221 219 214 217 196 196 194 200 195 201 201 199 199 197 198 191 181 192 198
242 232 241 282 254 243 302 334 1 274 277 326 102 112 109 118 102 109 97 91 104 85 105 116 115 149 105 106 110 125 147 186 201 228 267 237 210 203 194 199 196 196 195 194 209 203 201 198 197 191 186 188 193 194
257 354 242 224 257 283 301 329 318 311 245 216 159 148 141 135 137 137 133 131 164 163 171 180 174 132 140 122 110 115 164 203 257 266 235 206 176 186 195 195 190 199 200 209 205 192 191 193 194 194 194 194 195 199
218 202 239 284 324 285 314 302 244 209 215 184 148 152 149 148 109 151 84 284 253 226 236 259 251 252 257 258 267 252 232 232 238 233 285 221 214 210 199 208 210 201 196 192 199 205 203 198 196 197 196 196 197 196
230 229 239 257 285 260 312 267 229 264 156 146 136 154 145 140 129 177 211 307 298 272 256 258 261 270 274 270 259 252 247 243 242 245 248 240 241 205 200 206 209 205 202 199 198 198 190 193 195 197 196 195 193 194